{"data":{"norad_id":64274,"intl_designator":"2025-120U","name":"STARLINK-34272","alt_names":[],"object_type":"PAYLOAD","status":"ACTIVE","operator":null,"country":"US","launch_date":"2025-06-04","launch_site_code":"AFWTR","launch_vehicle":null,"mission":null,"orbit_class":"UNKNOWN","rcs_meters":null,"size_class":null,"mass_kg":null,"dimensions":null,"purposes":["comms"],"wikipedia_slug":null,"has_3d_model":false,"image_url":null,"decayed_at":null,"tle_current":{"epoch":"2026-09-20T08:24:53.904096Z","epoch_age_seconds":150527,"freshness":"FRESH","line1":"1 64274U 25120U   26263.35062389  .00012168  00000+0  37065-3 0  9999","line2":"2 64274  53.1590 290.1006 0001681  84.0176 276.1018 15.34402206 73651","mean_motion":15.34402206,"eccentricity":0.0001681,"inclination_deg":53.159,"raan_deg":290.1006,"arg_perigee_deg":84.0176,"mean_anomaly_deg":276.1018,"bstar":0.00037065,"rev_number":7365,"period_min":93.847623157028,"perigee_km":461.54673937587,"apogee_km":463.84662766027,"semimajor_km":6840.8336835181,"source":"CELESTRAK","updated_at":"2026-09-21T09:00:35.285440Z"}}}